Date,Flow_cfs
2000-01-01,15.0
2000-01-02,15.0
2000-01-03,15.0
2000-01-04,24.0
2000-01-05,74.0
2000-01-06,45.0
2000-01-07,30.0
2000-01-08,19.0
2000-01-09,18.0
2000-01-10,39.0
2000-01-11,62.0
2000-01-12,42.0
2000-01-13,33.0
2000-01-14,28.0
2000-01-15,24.0
2000-01-16,24.0
2000-01-17,22.0
2000-01-18,20.0
2000-01-19,19.0
2000-01-20,19.0
2000-01-21,18.0
2000-01-22,16.0
2000-01-23,16.0
2000-01-24,15.0
2000-01-25,17.0
2000-01-26,17.0
2000-01-27,16.0
2000-01-28,15.0
2000-01-29,14.0
2000-01-30,14.0
2000-01-31,23.0
2000-02-01,22.0
2000-02-02,18.0
2000-02-03,16.0
2000-02-04,16.0
2000-02-05,16.0
2000-02-06,15.0
2000-02-07,15.0
2000-02-08,14.0
2000-02-09,15.0
2000-02-10,16.0
2000-02-11,19.0
2000-02-12,18.0
2000-02-13,16.0
2000-02-14,98.0
2000-02-15,76.0
2000-02-16,48.0
2000-02-17,38.0
2000-02-18,33.0
2000-02-19,34.0
2000-02-20,31.0
2000-02-21,28.0
2000-02-22,31.0
2000-02-23,40.0
2000-02-24,49.0
2000-02-25,78.0
2000-02-26,109.0
2000-02-27,99.0
2000-02-28,98.0
2000-02-29,88.0
2000-03-01,72.0
2000-03-02,62.0
2000-03-03,50.0
2000-03-04,37.0
2000-03-05,33.0
2000-03-06,26.0
2000-03-07,28.0
2000-03-08,23.0
2000-03-09,22.0
2000-03-10,22.0
2000-03-11,36.0
2000-03-12,94.0
2000-03-13,64.0
2000-03-14,49.0
2000-03-15,43.0
2000-03-16,44.0
2000-03-17,89.0
2000-03-18,71.0
2000-03-19,57.0
2000-03-20,50.0
2000-03-21,47.0
2000-03-22,46.0
2000-03-23,43.0
2000-03-24,41.0
2000-03-25,39.0
2000-03-26,36.0
2000-03-27,36.0
2000-03-28,100.0
2000-03-29,112.0
2000-03-30,86.0
2000-03-31,64.0
2000-04-01,57.0
2000-04-02,51.0
2000-04-03,44.0
2000-04-04,48.0
2000-04-05,48.0
2000-04-06,43.0
2000-04-07,42.0
2000-04-08,34.0
2000-04-09,57.0
2000-04-10,47.0
2000-04-11,36.0
2000-04-12,34.0
2000-04-13,31.0
2000-04-14,22.0
2000-04-15,27.0
2000-04-16,27.0
2000-04-17,26.0
2000-04-18,26.0
2000-04-19,58.0
2000-04-20,70.0
2000-04-21,89.0
2000-04-22,333.0
2000-04-23,289.0
2000-04-24,185.0
2000-04-25,119.0
2000-04-26,123.0
2000-04-27,124.0
2000-04-28,99.0
2000-04-29,82.0
2000-04-30,70.0
2000-05-01,59.0
2000-05-02,48.0
2000-05-03,48.0
2000-05-04,47.0
2000-05-05,46.0
2000-05-06,44.0
2000-05-07,41.0
2000-05-08,39.0
2000-05-09,36.0
2000-05-10,45.0
2000-05-11,81.0
2000-05-12,66.0
2000-05-13,48.0
2000-05-14,52.0
2000-05-15,47.0
2000-05-16,37.0
2000-05-17,37.0
2000-05-18,33.0
2000-05-19,42.0
2000-05-20,46.0
2000-05-21,38.0
2000-05-22,34.0
2000-05-23,35.0
2000-05-24,61.0
2000-05-25,55.0
2000-05-26,41.0
2000-05-27,33.0
2000-05-28,28.0
2000-05-29,26.0
2000-05-30,25.0
2000-05-31,13.0
2000-06-01,20.0
2000-06-02,26.0
2000-06-03,34.0
2000-06-04,23.0
2000-06-05,19.0
2000-06-06,102.0
2000-06-07,293.0
2000-06-08,138.0
2000-06-09,73.0
2000-06-10,55.0
2000-06-11,44.0
2000-06-12,48.0
2000-06-13,41.0
2000-06-14,38.0
2000-06-15,34.0
2000-06-16,32.0
2000-06-17,29.0
2000-06-18,27.0
2000-06-19,35.0
2000-06-20,16.0
2000-06-21,19.0
2000-06-22,19.0
2000-06-23,19.0
2000-06-24,18.0
2000-06-25,16.0
2000-06-26,16.0
2000-06-27,25.0
2000-06-28,23.0
2000-06-29,20.0
2000-06-30,17.0
2000-07-01,14.0
2000-07-02,13.0
2000-07-03,12.0
2000-07-04,11.0
2000-07-05,10.0
2000-07-06,9.3
2000-07-07,18.0
2000-07-08,11.0
2000-07-09,12.0
2000-07-10,29.0
2000-07-11,15.0
2000-07-12,11.0
2000-07-13,9.3
2000-07-14,9.1
2000-07-15,21.0
2000-07-16,74.0
2000-07-17,28.0
2000-07-18,18.0
2000-07-19,13.0
2000-07-20,11.0
2000-07-21,10.0
2000-07-22,25.0
2000-07-23,15.0
2000-07-24,11.0
2000-07-25,19.0
2000-07-26,18.0
2000-07-27,84.0
2000-07-28,51.0
2000-07-29,29.0
2000-07-30,21.0
2000-07-31,50.0
2000-08-01,40.0
2000-08-02,28.0
2000-08-03,23.0
2000-08-04,21.0
2000-08-05,17.0
2000-08-06,14.0
2000-08-07,15.0
2000-08-08,12.0
2000-08-09,11.0
2000-08-10,11.0
2000-08-11,8.9
2000-08-12,8.1
2000-08-13,7.7
2000-08-14,20.0
2000-08-15,13.0
2000-08-16,39.0
2000-08-17,27.0
2000-08-18,17.0
2000-08-19,16.0
2000-08-20,12.0
2000-08-21,9.5
2000-08-22,8.4
2000-08-23,8.7
2000-08-24,11.0
2000-08-25,7.7
2000-08-26,6.7
2000-08-27,6.0
2000-08-28,5.7
2000-08-29,5.5
2000-08-30,6.3
2000-08-31,5.8
2000-09-01,5.3
2000-09-02,24.0
2000-09-03,19.0
2000-09-04,10.0
2000-09-05,7.5
2000-09-06,6.1
2000-09-07,5.8
2000-09-08,5.5
2000-09-09,5.2
2000-09-10,5.0
2000-09-11,4.6
2000-09-12,4.5
2000-09-13,8.9
2000-09-14,5.8
2000-09-15,71.0
2000-09-16,40.0
2000-09-17,13.0
2000-09-18,8.8
2000-09-19,7.5
2000-09-20,36.0
2000-09-21,14.0
2000-09-22,8.6
2000-09-23,7.3
2000-09-24,7.0
2000-09-25,6.4
2000-09-26,13.0
2000-09-27,17.0
2000-09-28,8.5
2000-09-29,7.5
2000-09-30,9.5
2000-10-01,8.5
2000-10-02,7.5
2000-10-03,6.7
2000-10-04,5.8
2000-10-05,15.0
2000-10-06,36.0
2000-10-07,17.0
2000-10-08,11.0
2000-10-09,8.9
2000-10-10,3.6
2000-10-11,1.5
2000-10-12,5.3
2000-10-13,5.9
2000-10-14,4.4
2000-10-15,3.9
2000-10-16,9.6
2000-10-17,12.0
2000-10-18,12.0
2000-10-19,62.0
2000-10-20,24.0
2000-10-21,14.0
2000-10-22,10.0
2000-10-23,10.0
2000-10-24,8.5
2000-10-25,7.2
2000-10-26,7.2
2000-10-27,7.2
2000-10-28,7.1
2000-10-29,6.2
2000-10-30,7.4
2000-10-31,41.0
2000-11-01,23.0
2000-11-02,14.0
2000-11-03,11.0
2000-11-04,10.0
2000-11-05,24.0
2000-11-06,26.0
2000-11-07,15.0
2000-11-08,12.0
2000-11-09,11.0
2000-11-10,76.0
2000-11-11,105.0
2000-11-12,57.0
2000-11-13,43.0
2000-11-14,44.0
2000-11-15,78.0
2000-11-16,49.0
2000-11-17,37.0
2000-11-18,27.0
2000-11-19,22.0
2000-11-20,20.0
2000-11-21,20.0
2000-11-22,19.0
2000-11-23,16.0
2000-11-24,14.0
2000-11-25,13.0
2000-11-26,39.0
2000-11-27,74.0
2000-11-28,48.0
2000-11-29,28.0
2000-11-30,29.0
2000-12-01,26.0
2000-12-02,22.0
2000-12-03,19.0
2000-12-04,17.0
2000-12-05,17.0
2000-12-06,15.0
2000-12-07,14.0
2000-12-08,14.0
2000-12-09,13.0
2000-12-10,12.0
2000-12-11,12.0
2000-12-12,13.0
2000-12-13,12.0
2000-12-14,19.0
2000-12-15,19.0
2000-12-16,24.0
2000-12-17,135.0
2000-12-18,198.0
2000-12-19,104.0
2000-12-20,83.0
2000-12-21,62.0
2000-12-22,48.0
2000-12-23,40.0
2000-12-24,33.0
2000-12-25,30.0
2000-12-26,27.0
2000-12-27,25.0
2000-12-28,23.0
2000-12-29,21.0
2000-12-30,24.0
2000-12-31,43.0
2001-01-01,31.0
2001-01-02,26.0
2001-01-03,21.0
2001-01-04,19.0
2001-01-05,18.0
2001-01-06,20.0
2001-01-07,21.0
2001-01-08,16.0
2001-01-09,17.0
2001-01-10,18.0
2001-01-11,17.0
2001-01-12,16.0
2001-01-13,14.0
2001-01-14,14.0
2001-01-15,17.0
2001-01-16,18.0
2001-01-17,17.0
2001-01-18,15.0
2001-01-19,22.0
2001-01-20,25.0
2001-01-21,19.0
2001-01-22,16.0
2001-01-23,15.0
2001-01-24,14.0
2001-01-25,14.0
2001-01-26,13.0
2001-01-27,13.0
2001-01-28,12.0
2001-01-29,12.0
2001-01-30,32.0
2001-01-31,50.0
2001-02-01,46.0
2001-02-02,36.0
2001-02-03,31.0
2001-02-04,25.0
2001-02-05,22.0
2001-02-06,30.0
2001-02-07,33.0
2001-02-08,29.0
2001-02-09,31.0
2001-02-10,68.0
2001-02-11,58.0
2001-02-12,40.0
2001-02-13,34.0
2001-02-14,41.0
2001-02-15,60.0
2001-02-16,48.0
2001-02-17,44.0
2001-02-18,37.0
2001-02-19,32.0
2001-02-20,32.0
2001-02-21,34.0
2001-02-22,31.0
2001-02-23,30.0
2001-02-24,28.0
2001-02-25,31.0
2001-02-26,49.0
2001-02-27,44.0
2001-02-28,36.0
2001-03-01,31.0
2001-03-02,28.0
2001-03-03,26.0
2001-03-04,24.0
2001-03-05,26.0
2001-03-06,34.0
2001-03-07,36.0
2001-03-08,32.0
2001-03-09,34.0
2001-03-10,43.0
2001-03-11,41.0
2001-03-12,43.0
2001-03-13,104.0
2001-03-14,106.0
2001-03-15,87.0
2001-03-16,91.0
2001-03-17,89.0
2001-03-18,90.0
2001-03-19,88.0
2001-03-20,89.0
2001-03-21,92.0
2001-03-22,961.0
2001-03-23,1110.0
2001-03-24,460.0
2001-03-25,278.0
2001-03-26,192.0
2001-03-27,160.0
2001-03-28,157.0
2001-03-29,146.0
2001-03-30,262.0
2001-03-31,375.0
2001-04-01,237.0
2001-04-02,159.0
2001-04-03,92.0
2001-04-04,93.0
2001-04-05,92.0
2001-04-06,87.0
2001-04-07,85.0
2001-04-08,101.0
2001-04-09,96.0
2001-04-10,85.0
2001-04-11,75.0
2001-04-12,75.0
2001-04-13,73.0
2001-04-14,66.0
2001-04-15,60.0
2001-04-16,55.0
2001-04-17,52.0
2001-04-18,57.0
2001-04-19,52.0
2001-04-20,47.0
2001-04-21,45.0
2001-04-22,43.0
2001-04-23,39.0
2001-04-24,36.0
2001-04-25,36.0
2001-04-26,34.0
2001-04-27,34.0
2001-04-28,34.0
2001-04-29,30.0
2001-04-30,29.0
2001-05-01,31.0
2001-05-02,26.0
2001-05-03,20.0
2001-05-04,19.0
2001-05-05,19.0
2001-05-06,17.0
2001-05-07,16.0
2001-05-08,16.0
2001-05-09,15.0
2001-05-10,14.0
2001-05-11,13.0
2001-05-12,14.0
2001-05-13,14.0
2001-05-14,12.0
2001-05-15,11.0
2001-05-16,12.0
2001-05-17,13.0
2001-05-18,12.0
2001-05-19,11.0
2001-05-20,11.0
2001-05-21,11.0
2001-05-22,16.0
2001-05-23,15.0
2001-05-24,25.0
2001-05-25,18.0
2001-05-26,14.0
2001-05-27,41.0
2001-05-28,25.0
2001-05-29,16.0
2001-05-30,14.0
2001-05-31,11.0
2001-06-01,9.5
2001-06-02,57.0
2001-06-03,61.0
2001-06-04,34.0
2001-06-05,21.0
2001-06-06,16.0
2001-06-07,13.0
2001-06-08,11.0
2001-06-09,9.8
2001-06-10,8.6
2001-06-11,11.0
2001-06-12,29.0
2001-06-13,15.0
2001-06-14,11.0
2001-06-15,9.5
2001-06-16,8.2
2001-06-17,71.0
2001-06-18,184.0
2001-06-19,71.0
2001-06-20,60.0
2001-06-21,129.0
2001-06-22,61.0
2001-06-23,36.0
2001-06-24,74.0
2001-06-25,98.0
2001-06-26,52.0
2001-06-27,35.0
2001-06-28,30.0
2001-06-29,18.0
2001-06-30,62.0
2001-07-01,184.0
2001-07-02,168.0
2001-07-03,79.0
2001-07-04,49.0
2001-07-05,49.0
2001-07-06,49.0
2001-07-07,34.0
2001-07-08,30.0
2001-07-09,26.0
2001-07-10,24.0
2001-07-11,23.0
2001-07-12,21.0
2001-07-13,27.0
2001-07-14,19.0
2001-07-15,17.0
2001-07-16,15.0
2001-07-17,23.0
2001-07-18,20.0
2001-07-19,15.0
2001-07-20,13.0
2001-07-21,12.0
2001-07-22,11.0
2001-07-23,9.6
2001-07-24,8.9
2001-07-25,8.8
2001-07-26,15.0
2001-07-27,13.0
2001-07-28,9.5
2001-07-29,8.3
2001-07-30,7.9
2001-07-31,7.6
2001-08-01,7.5
2001-08-02,7.3
2001-08-03,25.0
2001-08-04,125.0
2001-08-05,55.0
2001-08-06,26.0
2001-08-07,18.0
2001-08-08,13.0
2001-08-09,11.0
2001-08-10,10.0
2001-08-11,25.0
2001-08-12,67.0
2001-08-13,72.0
2001-08-14,38.0
2001-08-15,31.0
2001-08-16,18.0
2001-08-17,11.0
2001-08-18,6.9
2001-08-19,9.1
2001-08-20,10.0
2001-08-21,11.0
2001-08-22,8.7
2001-08-23,7.9
2001-08-24,7.0
2001-08-25,6.3
2001-08-26,5.6
2001-08-27,5.7
2001-08-28,5.7
2001-08-29,5.4
2001-08-30,5.3
2001-08-31,5.6
2001-09-01,5.6
2001-09-02,5.4
2001-09-03,4.8
2001-09-04,9.2
2001-09-05,7.8
2001-09-06,5.5
2001-09-07,5.5
2001-09-08,5.3
2001-09-09,4.9
2001-09-10,4.5
2001-09-11,4.3
2001-09-12,4.0
2001-09-13,3.6
2001-09-14,4.6
2001-09-15,5.9
2001-09-16,5.4
2001-09-17,5.2
2001-09-18,5.0
2001-09-19,4.2
2001-09-20,3.4
2001-09-21,14.0
2001-09-22,14.0
2001-09-23,6.2
2001-09-24,13.0
2001-09-25,9.3
2001-09-26,6.6
2001-09-27,4.0
2001-09-28,4.2
2001-09-29,3.5
2001-09-30,2.8
2001-10-01,2.8
2001-10-02,2.8
2001-10-03,2.8
2001-10-04,2.74
2001-10-05,2.67
2001-10-06,2.65
2001-10-07,2.6
2001-10-08,2.54
2001-10-09,2.4
2001-10-10,2.35
2001-10-11,2.32
2001-10-12,2.62
2001-10-13,2.72
2001-10-14,2.6
2001-10-15,2.68
2001-10-16,6.14
2001-10-17,34.4
2001-10-18,9.41
2001-10-19,5.46
2001-10-20,4.39
2001-10-21,3.77
2001-10-22,3.26
2001-10-23,3.09
2001-10-24,3.37
2001-10-25,4.13
2001-10-26,3.32
2001-10-27,2.9
2001-10-28,2.82
2001-10-29,2.8
2001-10-30,3.24
2001-10-31,2.72
2001-11-01,6.46
2001-11-02,4.39
2001-11-03,3.58
2001-11-04,3.74
2001-11-05,4.96
2001-11-06,7.2
2001-11-07,4.29
2001-11-08,3.67
2001-11-09,3.67
2001-11-10,3.57
2001-11-11,3.22
2001-11-12,2.89
2001-11-13,2.95
2001-11-14,3.13
2001-11-15,3.2
2001-11-16,3.02
2001-11-17,2.7
2001-11-18,2.6
2001-11-19,2.42
2001-11-20,2.58
2001-11-21,2.6
2001-11-22,2.59
2001-11-23,2.4
2001-11-24,2.4
2001-11-25,2.47
2001-11-26,5.75
2001-11-27,4.29
2001-11-28,3.36
2001-11-29,4.25
2001-11-30,3.87
2001-12-01,3.3
2001-12-02,2.8
2001-12-03,2.73
2001-12-04,2.72
2001-12-05,2.6
2001-12-06,2.53
2001-12-07,2.37
2001-12-08,2.35
2001-12-09,5.11
2001-12-10,4.66
2001-12-11,4.1
2001-12-12,4.44
2001-12-13,7.6
2001-12-14,10.3
2001-12-15,22.3
2001-12-16,9.35
2001-12-17,10.4
2001-12-18,43.4
2001-12-19,22.9
2001-12-20,12.4
2001-12-21,9.54
2001-12-22,8.3
2001-12-23,7.04
2001-12-24,37.7
2001-12-25,21.1
2001-12-26,12.6
2001-12-27,10.2
2001-12-28,8.11
2001-12-29,7.28
2001-12-30,6.58
2001-12-31,5.99
2002-01-01,5.79
2002-01-02,5.38
2002-01-03,5.03
2002-01-04,4.86
2002-01-05,4.67
2002-01-06,4.93
2002-01-07,23.6
2002-01-08,10.4
2002-01-09,7.73
2002-01-10,7.36
2002-01-11,9.03
2002-01-12,9.39
2002-01-13,30.5
2002-01-14,23.9
2002-01-15,17.3
2002-01-16,12.6
2002-01-17,11.2
2002-01-18,9.71
2002-01-19,8.67
2002-01-20,8.78
2002-01-21,9.85
2002-01-22,11.1
2002-01-23,11.9
2002-01-24,14.3
2002-01-25,14.0
2002-01-26,12.0
2002-01-27,10.5
2002-01-28,9.62
2002-01-29,9.24
2002-01-30,16.1
2002-01-31,13.5
2002-02-01,26.1
2002-02-02,24.5
2002-02-03,15.1
2002-02-04,13.2
2002-02-05,12.0
2002-02-06,10.5
2002-02-07,10.0
2002-02-08,10.2
2002-02-09,9.88
2002-02-10,9.43
2002-02-11,38.6
2002-02-12,20.4
2002-02-13,14.4
2002-02-14,11.8
2002-02-15,10.9
2002-02-16,11.0
2002-02-17,12.2
2002-02-18,15.1
2002-02-19,12.3
2002-02-20,11.6
2002-02-21,25.0
2002-02-22,19.0
2002-02-23,15.0
2002-02-24,12.9
2002-02-25,12.4
2002-02-26,12.5
2002-02-27,22.0
2002-02-28,26.2
2002-03-01,18.0
2002-03-02,14.5
2002-03-03,45.0
2002-03-04,39.3
2002-03-05,26.0
2002-03-06,20.4
2002-03-07,18.2
2002-03-08,17.0
2002-03-09,15.4
2002-03-10,27.5
2002-03-11,20.5
2002-03-12,16.2
2002-03-13,15.5
2002-03-14,16.3
2002-03-15,15.1
2002-03-16,41.1
2002-03-17,30.7
2002-03-18,24.4
2002-03-19,29.6
2002-03-20,30.9
2002-03-21,54.3
2002-03-22,48.4
2002-03-23,31.8
2002-03-24,26.3
2002-03-25,25.1
2002-03-26,35.0
2002-03-27,88.2
2002-03-28,64.2
2002-03-29,43.0
2002-03-30,34.7
2002-03-31,30.7
2002-04-01,125.0
2002-04-02,90.1
2002-04-03,60.5
2002-04-04,57.1
2002-04-05,45.8
2002-04-06,39.3
2002-04-07,33.4
2002-04-08,30.4
2002-04-09,29.3
2002-04-10,28.9
2002-04-11,25.7
2002-04-12,23.8
2002-04-13,22.9
2002-04-14,22.1
2002-04-15,24.7
2002-04-16,23.7
2002-04-17,21.5
2002-04-18,20.9
2002-04-19,19.6
2002-04-20,17.9
2002-04-21,17.0
2002-04-22,18.3
2002-04-23,20.2
2002-04-24,16.6
2002-04-25,22.7
2002-04-26,65.9
2002-04-27,37.6
2002-04-28,41.2
2002-04-29,49.0
2002-04-30,42.8
2002-05-01,32.8
2002-05-02,38.2
2002-05-03,50.3
2002-05-04,33.7
2002-05-05,26.7
2002-05-06,22.9
2002-05-07,20.7
2002-05-08,18.9
2002-05-09,18.1
2002-05-10,34.3
2002-05-11,23.5
2002-05-12,22.5
2002-05-13,86.9
2002-05-14,220.0
2002-05-15,137.0
2002-05-16,73.7
2002-05-17,53.0
2002-05-18,70.2
2002-05-19,108.0
2002-05-20,78.5
2002-05-21,56.2
2002-05-22,45.5
2002-05-23,39.0
2002-05-24,34.0
2002-05-25,29.9
2002-05-26,26.1
2002-05-27,24.2
2002-05-28,28.6
2002-05-29,39.5
2002-05-30,113.0
2002-05-31,110.0
2002-06-01,68.9
2002-06-02,51.4
2002-06-03,41.4
2002-06-04,32.9
2002-06-05,29.5
2002-06-06,61.5
2002-06-07,102.0
2002-06-08,73.4
2002-06-09,49.0
2002-06-10,37.6
2002-06-11,31.6
2002-06-12,30.8
2002-06-13,32.0
2002-06-14,29.4
2002-06-15,47.0
2002-06-16,47.0
2002-06-17,44.3
2002-06-18,34.5
2002-06-19,27.5
2002-06-20,24.6
2002-06-21,15.7
2002-06-22,17.0
2002-06-23,17.0
2002-06-24,14.9
2002-06-25,12.8
2002-06-26,11.9
2002-06-27,17.9
2002-06-28,47.5
2002-06-29,21.6
2002-06-30,15.8
2002-07-01,12.9
2002-07-02,11.4
2002-07-03,10.5
2002-07-04,9.29
2002-07-05,8.23
2002-07-06,7.33
2002-07-07,7.05
2002-07-08,6.7
2002-07-09,9.92
2002-07-10,34.0
2002-07-11,11.5
2002-07-12,8.34
2002-07-13,7.33
2002-07-14,6.65
2002-07-15,6.31
2002-07-16,6.12
2002-07-17,5.7
2002-07-18,5.5
2002-07-19,13.3
2002-07-20,8.03
2002-07-21,6.48
2002-07-22,5.66
2002-07-23,13.4
2002-07-24,36.9
2002-07-25,13.5
2002-07-26,8.02
2002-07-27,7.48
2002-07-28,6.76
2002-07-29,6.45
2002-07-30,5.66
2002-07-31,4.92
2002-08-01,4.71
2002-08-02,5.14
2002-08-03,7.3
2002-08-04,5.11
2002-08-05,4.58
2002-08-06,4.23
2002-08-07,4.1
2002-08-08,4.1
2002-08-09,4.1
2002-08-10,4.1
2002-08-11,3.85
2002-08-12,3.61
2002-08-13,3.39
2002-08-14,3.3
2002-08-15,3.3
2002-08-16,3.09
2002-08-17,2.9
2002-08-18,2.9
2002-08-19,2.81
2002-08-20,3.02
2002-08-21,3.41
2002-08-22,3.62
2002-08-23,8.58
2002-08-24,6.65
2002-08-25,12.7
2002-08-26,4.63
2002-08-27,3.58
2002-08-28,3.15
2002-08-29,22.7
2002-08-30,35.0
2002-08-31,10.1
2002-09-01,5.98
2002-09-02,10.1
2002-09-03,23.9
2002-09-04,10.2
2002-09-05,6.65
2002-09-06,5.15
2002-09-07,4.58
2002-09-08,4.19
2002-09-09,3.87
2002-09-10,3.78
2002-09-11,3.6
2002-09-12,2.94
2002-09-13,10.3
2002-09-14,5.07
2002-09-15,3.66
2002-09-16,22.4
2002-09-17,19.7
2002-09-18,7.18
2002-09-19,5.2
2002-09-20,4.4
2002-09-21,3.53
2002-09-22,3.17
2002-09-23,35.0
2002-09-24,27.0
2002-09-25,10.4
2002-09-26,5.69
2002-09-27,13.0
2002-09-28,19.4
2002-09-29,9.97
2002-09-30,7.08
2002-10-01,5.66
2002-10-02,5.03
2002-10-03,4.5
2002-10-04,4.17
2002-10-05,4.33
2002-10-06,4.04
2002-10-07,3.92
2002-10-08,4.81
2002-10-09,5.22
2002-10-10,4.1
2002-10-11,4.22
2002-10-12,7.82
2002-10-13,8.86
2002-10-14,9.59
2002-10-15,7.13
2002-10-16,54.7
2002-10-17,73.2
2002-10-18,24.8
2002-10-19,11.8
2002-10-20,9.19
2002-10-21,8.16
2002-10-22,7.31
2002-10-23,11.3
2002-10-24,10.2
2002-10-25,7.94
2002-10-26,62.2
2002-10-27,76.3
2002-10-28,35.9
2002-10-29,15.8
2002-10-30,13.1
2002-10-31,11.1
2002-11-01,10.7
2002-11-02,9.43
2002-11-03,9.1
2002-11-04,8.98
2002-11-05,8.82
2002-11-06,44.4
2002-11-07,40.8
2002-11-08,17.7
2002-11-09,13.6
2002-11-10,12.0
2002-11-11,11.4
2002-11-12,17.6
2002-11-13,76.3
2002-11-14,51.0
2002-11-15,28.5
2002-11-16,20.4
2002-11-17,117.0
2002-11-18,141.0
2002-11-19,84.5
2002-11-20,60.1
2002-11-21,44.9
2002-11-22,71.8
2002-11-23,60.0
2002-11-24,43.1
2002-11-25,35.9
2002-11-26,34.2
2002-11-27,35.1
2002-11-28,32.0
2002-11-29,28.5
2002-11-30,27.3
2002-12-01,27.1
2002-12-02,23.5
2002-12-03,22.4
2002-12-04,21.1
2002-12-05,20.1
2002-12-06,19.6
2002-12-07,19.1
2002-12-08,18.5
2002-12-09,17.7
2002-12-10,16.6
2002-12-11,15.8
2002-12-12,76.8
2002-12-13,60.5
2002-12-14,161.0
2002-12-15,266.0
2002-12-16,143.0
2002-12-17,91.8
2002-12-18,68.5
2002-12-19,65.1
2002-12-20,98.0
2002-12-21,178.0
2002-12-22,106.0
2002-12-23,73.8
2002-12-24,65.3
2002-12-25,59.0
2002-12-26,72.8
2002-12-27,63.1
2002-12-28,53.3
2002-12-29,47.3
2002-12-30,43.6
2002-12-31,40.3
2003-01-01,49.7
2003-01-02,102.0
2003-01-03,79.2
2003-01-04,88.0
2003-01-05,72.0
2003-01-06,60.2
2003-01-07,53.8
2003-01-08,49.3
2003-01-09,48.5
2003-01-10,49.5
2003-01-11,46.0
2003-01-12,42.1
2003-01-13,37.5
2003-01-14,34.0
2003-01-15,32.1
2003-01-16,29.7
2003-01-17,28.3
2003-01-18,26.2
2003-01-19,25.0
2003-01-20,23.2
2003-01-21,21.7
2003-01-22,20.0
2003-01-23,18.6
2003-01-24,17.7
2003-01-25,17.3
2003-01-26,17.2
2003-01-27,16.5
2003-01-28,15.9
2003-01-29,15.6
2003-01-30,15.2
2003-01-31,14.8
2003-02-01,15.3
2003-02-02,25.0
2003-02-03,33.3
2003-02-04,37.6
2003-02-05,41.1
2003-02-06,30.7
2003-02-07,27.8
2003-02-08,25.3
2003-02-09,22.8
2003-02-10,20.9
2003-02-11,20.2
2003-02-12,19.1
2003-02-13,17.0
2003-02-14,15.6
2003-02-15,14.6
2003-02-16,13.3
2003-02-17,13.5
2003-02-18,14.8
2003-02-19,15.4
2003-02-20,17.4
2003-02-21,20.5
2003-02-22,52.2
2003-02-23,162.0
2003-02-24,113.0
2003-02-25,68.1
2003-02-26,47.6
2003-02-27,40.2
2003-02-28,35.2
2003-03-01,31.7
2003-03-02,86.6
2003-03-03,112.0
2003-03-04,66.3
2003-03-05,58.2
2003-03-06,56.2
2003-03-07,46.1
2003-03-08,43.6
2003-03-09,51.8
2003-03-10,54.6
2003-03-11,45.8
2003-03-12,46.6
2003-03-13,45.2
2003-03-14,44.5
2003-03-15,40.8
2003-03-16,38.5
2003-03-17,48.3
2003-03-18,67.1
2003-03-19,70.8
2003-03-20,62.9
2003-03-21,110.0
2003-03-22,106.0
2003-03-23,86.4
2003-03-24,74.8
2003-03-25,65.5
2003-03-26,59.1
2003-03-27,64.0
2003-03-28,55.7
2003-03-29,59.3
2003-03-30,200.0
2003-03-31,189.0
2003-04-01,115.0
2003-04-02,87.5
2003-04-03,82.0
2003-04-04,84.8
2003-04-05,86.1
2003-04-06,84.4
2003-04-07,74.7
2003-04-08,68.1
2003-04-09,67.5
2003-04-10,63.1
2003-04-11,91.1
2003-04-12,192.0
2003-04-13,126.0
2003-04-14,87.7
2003-04-15,71.9
2003-04-16,63.2
2003-04-17,55.3
2003-04-18,49.3
2003-04-19,46.1
2003-04-20,43.9
2003-04-21,40.3
2003-04-22,49.2
2003-04-23,54.4
2003-04-24,46.2
2003-04-25,43.7
2003-04-26,63.4
2003-04-27,118.0
2003-04-28,75.8
2003-04-29,54.2
2003-04-30,45.3
2003-05-01,40.1
2003-05-02,37.6
2003-05-03,35.5
2003-05-04,32.3
2003-05-05,29.4
2003-05-06,28.5
2003-05-07,27.9
2003-05-08,29.2
2003-05-09,30.3
2003-05-10,27.7
2003-05-11,24.8
2003-05-12,41.4
2003-05-13,33.2
2003-05-14,23.2
2003-05-15,20.7
2003-05-16,21.3
2003-05-17,21.2
2003-05-18,20.3
2003-05-19,18.8
2003-05-20,17.5
2003-05-21,15.7
2003-05-22,15.5
2003-05-23,15.7
2003-05-24,16.8
2003-05-25,28.6
2003-05-26,80.4
2003-05-27,161.0
2003-05-28,89.8
2003-05-29,72.4
2003-05-30,55.5
2003-05-31,40.4
2003-06-01,161.0
2003-06-02,164.0
2003-06-03,86.8
2003-06-04,57.5
2003-06-05,71.3
2003-06-06,57.2
2003-06-07,60.2
2003-06-08,76.2
2003-06-09,55.1
2003-06-10,43.3
2003-06-11,37.4
2003-06-12,35.7
2003-06-13,33.2
2003-06-14,34.7
2003-06-15,30.7
2003-06-16,26.1
2003-06-17,22.5
2003-06-18,31.6
2003-06-19,28.6
2003-06-20,14.8
2003-06-21,20.7
2003-06-22,91.0
2003-06-23,173.0
2003-06-24,87.2
2003-06-25,51.7
2003-06-26,37.2
2003-06-27,30.6
2003-06-28,25.6
2003-06-29,20.9
2003-06-30,18.8
2003-07-01,17.1
2003-07-02,15.3
2003-07-03,13.7
2003-07-04,12.7
2003-07-05,11.7
2003-07-06,10.7
2003-07-07,10.6
2003-07-08,9.79
2003-07-09,10.9
2003-07-10,10.5
2003-07-11,17.2
2003-07-12,49.1
2003-07-13,24.8
2003-07-14,15.4
2003-07-15,12.0
2003-07-16,11.1
2003-07-17,10.3
2003-07-18,13.3
2003-07-19,57.7
2003-07-20,28.8
2003-07-21,16.9
2003-07-22,36.5
2003-07-23,71.7
2003-07-24,45.7
2003-07-25,27.7
2003-07-26,17.6
2003-07-27,13.4
2003-07-28,11.7
2003-07-29,9.7
2003-07-30,8.7
2003-07-31,8.11
2003-08-01,40.7
2003-08-02,41.2
2003-08-03,55.3
2003-08-04,70.4
2003-08-05,78.8
2003-08-06,40.3
2003-08-07,26.6
2003-08-08,78.4
2003-08-09,55.0
2003-08-10,35.7
2003-08-11,19.7
2003-08-12,57.9
2003-08-13,77.6
2003-08-14,96.7
2003-08-15,55.1
2003-08-16,34.6
2003-08-17,26.0
2003-08-18,13.4
2003-08-19,20.7
2003-08-20,16.6
2003-08-21,13.5
2003-08-22,20.0
2003-08-23,18.3
2003-08-24,11.0
2003-08-25,9.73
2003-08-26,9.11
2003-08-27,9.54
2003-08-28,7.75
2003-08-29,6.97
2003-08-30,7.71
2003-08-31,7.2
2003-09-01,6.12
2003-09-02,12.3
2003-09-03,9.61
2003-09-04,21.3
2003-09-05,16.4
2003-09-06,10.5
2003-09-07,7.86
2003-09-08,6.59
2003-09-09,5.81
2003-09-10,5.55
2003-09-11,5.47
2003-09-12,5.69
2003-09-13,5.26
2003-09-14,5.28
2003-09-15,15.7
2003-09-16,51.7
2003-09-17,34.4
2003-09-18,10.1
2003-09-19,14.2
2003-09-20,14.3
2003-09-21,9.41
2003-09-22,4.46
2003-09-23,28.9
2003-09-24,45.6
2003-09-25,17.5
2003-09-26,12.0
2003-09-27,10.1
2003-09-28,8.36
2003-09-29,7.89
2003-09-30,6.79
2003-10-01,6.76
2003-10-02,5.61
2003-10-03,5.54
2003-10-04,9.68
2003-10-05,10.9
2003-10-06,7.05
2003-10-07,5.8
2003-10-08,5.89
2003-10-09,5.26
2003-10-10,4.71
2003-10-11,4.93
2003-10-12,48.6
2003-10-13,41.8
2003-10-14,15.3
2003-10-15,107.0
2003-10-16,67.8
2003-10-17,31.7
2003-10-18,20.3
2003-10-19,15.3
2003-10-20,12.6
2003-10-21,12.0
2003-10-22,11.5
2003-10-23,11.5
2003-10-24,9.92
2003-10-25,8.56
2003-10-26,8.06
2003-10-27,42.1
2003-10-28,46.2
2003-10-29,135.0
2003-10-30,123.0
2003-10-31,60.2
2003-11-01,42.0
2003-11-02,32.7
2003-11-03,30.7
2003-11-04,18.8
2003-11-05,36.5
2003-11-06,47.5
2003-11-07,34.4
2003-11-08,26.7
2003-11-09,20.3
2003-11-10,17.9
2003-11-11,17.8
2003-11-12,19.8
2003-11-13,21.9
2003-11-14,19.5
2003-11-15,15.8
2003-11-16,13.8
2003-11-17,13.2
2003-11-18,13.1
2003-11-19,13.7
2003-11-20,22.4
2003-11-21,45.9
2003-11-22,33.3
2003-11-23,24.1
2003-11-24,19.9
2003-11-25,21.4
2003-11-26,18.2
2003-11-27,16.1
2003-11-28,17.9
2003-11-29,35.6
2003-11-30,24.7
2003-12-01,19.7
2003-12-02,17.3
2003-12-03,14.8
2003-12-04,13.3
2003-12-05,12.3
2003-12-06,14.1
2003-12-07,15.6
2003-12-08,14.6
2003-12-09,22.2
2003-12-10,16.0
2003-12-11,67.2
2003-12-12,146.0
2003-12-13,85.6
2003-12-14,54.1
2003-12-15,152.0
2003-12-16,134.0
2003-12-17,108.0
2003-12-18,192.0
2003-12-19,132.0
2003-12-20,88.3
2003-12-21,66.7
2003-12-22,57.4
2003-12-23,51.5
2003-12-24,65.0
2003-12-25,97.0
2003-12-26,84.2
2003-12-27,65.1
2003-12-28,53.8
2003-12-29,49.3
2003-12-30,45.2
2003-12-31,43.1
2004-01-01,39.4
2004-01-02,37.5
2004-01-03,39.3
2004-01-04,41.5
2004-01-05,47.7
2004-01-06,49.6
2004-01-07,41.8
2004-01-08,31.5
2004-01-09,29.7
2004-01-10,27.5
2004-01-11,25.8
2004-01-12,24.4
2004-01-13,23.2
2004-01-14,21.6
2004-01-15,20.4
2004-01-16,17.9
2004-01-17,16.7
2004-01-18,17.1
2004-01-19,17.5
2004-01-20,16.6
2004-01-21,15.1
2004-01-22,14.7
2004-01-23,14.0
2004-01-24,13.2
2004-01-25,12.3
2004-01-26,11.7
2004-01-27,11.4
2004-01-28,11.7
2004-01-29,11.7
2004-01-30,11.3
2004-01-31,11.2
2004-02-01,10.6
2004-02-02,10.5
2004-02-03,11.5
2004-02-04,49.2
2004-02-05,27.7
2004-02-06,23.0
2004-02-07,53.8
2004-02-08,39.9
2004-02-09,26.1
2004-02-10,22.4
2004-02-11,19.6